Las Vegas, NM

7:18 AM MDT on September 30, 2016 (GMT -0600)
Las Vegas Municipal

Weather History for KLVS - March, 2012

Change the Weather History Date:

Tuesday, March 6, 2012

  Actual Average Record
Temperature  
Mean Temperature 50 °F -  
Max Temperature 63 °F 53 °F 72 °F (1972)
Min Temperature 36 °F 23 °F 3 °F (1948)
Degree Days  
Heating Degree Days 16    
Moisture  
Dew Point 4 °F    
Average Humidity 19    
Maximum Humidity 33    
Minimum Humidity 8    
Precipitation  
Precipitation 0.00 in - - ()
Sea Level Pressure  
Sea Level Pressure 29.68 in    
Wind  
Wind Speed 16 mph (SSW)    
Max Wind Speed 32 mph    
Max Gust Speed 44 mph    
Visibility 10 miles    
Events      
Averages and records for this station are not official NWS values.
T = Trace of Precipitation, MM = Missing Value Source: NWS Daily Summary

Daily Weather History Graph

Daily Weather History Graph

Search for Another Location

Airport or City:

Trip Planner

Search our weather history database for the weather conditions in past years. The results will help you decide how hot, cold, wet, or windy it might be!

Date:

Astronomy

Mar. 06, 2012 Rise Set
Actual Time 6:23 AM MST 6:00 PM MST
Civil Twilight 5:57 AM MST 6:26 PM MST
Nautical Twilight 5:28 AM MST 6:55 PM MST
Astronomical Twilight 4:58 AM MST 7:25 PM MST
Moon 4:31 PM MST (3/6) 4:57 AM MST (3/6)
Length of Visible Light 12h 28m
Length of Day
11h 37m
Waxing Gibbous, 96% of the Moon is Illuminated
Mar 6
Waxing Gibbous
Mar 8
Full
Mar 14
Last Quarter
Mar 22
New
Mar 30
First Quarter

Hourly Weather History & Observations

Time (MST) Temp. Windchill Dew Point Humidity Pressure Visibility Wind Dir Wind Speed Gust Speed Precip Events Conditions
12:53 AM 42.1 °F 35.2 °F 9.0 °F 26% 29.85 in 10.0 mi SSW 12.7 mph - N/A   Clear
1:53 AM 37.9 °F 29.6 °F 9.0 °F 30% 29.84 in 10.0 mi SSW 13.8 mph - N/A   Clear
2:53 AM 39.0 °F 31.0 °F 8.1 °F 28% 29.81 in 10.0 mi SSW 13.8 mph - N/A   Clear
3:53 AM 39.0 °F 30.3 °F 8.1 °F 28% 29.80 in 10.0 mi SW 16.1 mph - N/A   Clear
4:53 AM 36.0 °F 28.0 °F 9.0 °F 33% 29.81 in 10.0 mi SSW 11.5 mph - N/A   Clear
5:53 AM 36.0 °F 27.5 °F 9.0 °F 33% 29.83 in 10.0 mi SSW 12.7 mph - N/A   Clear
7:53 AM 44.1 °F 38.1 °F 12.0 °F 27% 29.83 in 10.0 mi SSW 11.5 mph - N/A   Clear
9:53 AM 59.0 °F - -0.9 °F 9% 29.73 in 10.0 mi SW 26.5 mph 29.9 mph N/A   Clear
10:53 AM 61.0 °F - 1.9 °F 9% 29.69 in 10.0 mi SW 20.7 mph 29.9 mph N/A   Clear
11:53 AM 63.0 °F - -0.0 °F 8% 29.65 in 10.0 mi WSW 24.2 mph 35.7 mph N/A   Clear
12:53 PM 63.0 °F - -0.0 °F 8% 29.60 in 10.0 mi WSW 21.9 mph 36.8 mph N/A   Clear
1:53 PM 63.0 °F - 3.0 °F 9% 29.58 in 10.0 mi SW 32.2 mph 43.7 mph N/A   Clear
2:53 PM 63.0 °F - 3.0 °F 9% 29.57 in 10.0 mi WSW 27.6 mph 35.7 mph N/A   Clear
4:53 PM 57.9 °F - 3.0 °F 11% 29.58 in 10.0 mi SW 24.2 mph 29.9 mph N/A   Clear
5:53 PM 53.1 °F - 1.0 °F 12% 29.59 in 10.0 mi SW 21.9 mph - N/A   Clear
7:53 PM 41.0 °F 35.2 °F 1.0 °F 19% 29.60 in 10.0 mi SSE 9.2 mph - N/A   Clear
8:53 PM 41.0 °F 33.5 °F 1.9 °F 20% 29.58 in 10.0 mi SSE 13.8 mph - N/A   Clear
9:53 PM 37.9 °F 29.6 °F 3.0 °F 23% 29.57 in 10.0 mi South 13.8 mph - N/A   Clear
10:53 PM 39.0 °F 30.6 °F 3.9 °F 23% 29.55 in 10.0 mi SSW 15.0 mph - N/A   Clear
11:53 PM 39.9 °F 31.4 °F 3.0 °F 21% 29.52 in 10.0 mi SSW 16.1 mph - N/A   Clear